Niigata Airport, Japan

7:42 PM JST on May 27, 2017 (GMT +0900)
Niigata

Weather History for RJSN - November, 2012

Change the Weather History Date:

Monday, November 12, 2012

  Actual Average Record
Temperature  
Mean Temperature 58 °F -  
Max Temperature 60 °F 51 °F 66 °F (1997)
Min Temperature 55 °F 41 °F 37 °F (2013)
Degree Days  
Heating Degree Days 8    
Growing Degree Days 8 (Base 50)    
Moisture  
Dew Point 52 °F    
Average Humidity 83    
Maximum Humidity 100    
Minimum Humidity 55    
Precipitation  
Precipitation 0.00 in - - ()
Sea Level Pressure  
Sea Level Pressure 29.81 in    
Wind  
Wind Speed 10 mph ()    
Max Wind Speed 21 mph    
Max Gust Speed 32 mph    
Visibility 4.0 miles    
Events Rain    
Averages and records for this station are not official NWS values.
T = Trace of Precipitation, MM = Missing Value Source: Averaged Metar Reports

Daily Weather History Graph

Daily Weather History Graph

Search for Another Location

Airport or City:

Trip Planner

Search our weather history database for the weather conditions in past years. The results will help you decide how hot, cold, wet, or windy it might be!

Date:

Astronomy

Nov. 12, 2012 Rise Set
Actual Time 6:20 AM JST 4:34 PM JST
Civil Twilight 5:52 AM JST 5:02 PM JST
Nautical Twilight 5:21 AM JST 5:33 PM JST
Astronomical Twilight 4:50 AM JST 6:04 PM JST
Moon 4:02 AM JST (11/12) 3:11 PM JST (11/12)
Length of Visible Light 11h 09m
Length of Day
10h 13m
Waning Crescent, 5% of the Moon is Illuminated
Nov 12
Waning Crescent
Nov 14
New
Nov 20
First Quarter
Nov 28
Full
Dec 7
Last Quarter

Hourly Weather History & Observations

Time (JST) Temp. Dew Point Humidity Pressure Visibility Wind Dir Wind Speed Gust Speed Precip Events Conditions
6:10 AM 60.8 °F 51.8 °F 72% 29.77 in 6.2 mi South 13.8 mph - N/A   Mostly Cloudy
6:40 AM 59.0 °F 53.6 °F 82% 29.83 in 4.3 mi SW 16.1 mph - N/A Rain Light Rain Showers
6:48 AM 59.0 °F 53.6 °F 82% 29.83 in 2.5 mi SW 13.8 mph - N/A Rain Rain Showers
7:00 AM 57.2 °F 53.6 °F 88% 29.83 in 2.5 mi SSW 8.1 mph - N/A Rain Rain Showers
7:25 AM 57.2 °F 55.4 °F 94% 29.83 in 3.7 mi South 6.9 mph - N/A Rain Light Rain Showers
7:39 AM 57.2 °F 57.2 °F 100% 29.83 in 2.5 mi South 4.6 mph - N/A Rain Light Rain Showers
7:50 AM 59.0 °F 55.4 °F 88% 29.83 in 3.7 mi South 6.9 mph - N/A Rain Light Rain Showers
8:00 AM 57.2 °F 53.6 °F 88% 29.83 in 3.7 mi SSE 8.1 mph - N/A Rain Light Rain Showers
8:16 AM 55.4 °F 53.6 °F 94% 29.83 in 2.5 mi South 8.1 mph - N/A Rain Light Rain Showers
8:46 AM 57.2 °F 55.4 °F 94% 29.83 in 3.1 mi SW 8.1 mph - N/A Rain Light Rain Showers
9:00 AM 57.2 °F 53.6 °F 88% 29.83 in 3.1 mi SW 10.4 mph - N/A Rain Light Rain Showers
9:46 AM 57.2 °F 55.4 °F 94% 29.83 in 2.5 mi South 6.9 mph - N/A Rain Light Rain Showers
9:49 AM 57.2 °F 55.4 °F 94% 29.83 in 2.2 mi South 6.9 mph - N/A Rain Rain Showers
10:00 AM 57.2 °F 55.4 °F 94% 29.83 in 3.1 mi South 6.9 mph - N/A Rain Light Rain Showers
10:16 AM 57.2 °F 55.4 °F 94% 29.83 in 2.2 mi South 8.1 mph - N/A Rain Rain Showers
10:51 AM 57.2 °F 55.4 °F 94% 29.83 in 2.5 mi South 8.1 mph - N/A Rain Light Rain Showers
11:00 AM 57.2 °F 53.6 °F 88% 29.83 in 2.5 mi SSW 8.1 mph - N/A Rain Light Rain Showers
12:00 PM 57.2 °F 53.6 °F 88% 29.80 in 3.7 mi SSW 8.1 mph - N/A Rain Light Rain Showers
1:00 PM 57.2 °F 51.8 °F 82% 29.77 in 5.6 mi South 4.6 mph - N/A Rain Light Rain Showers
2:00 PM 55.4 °F 53.6 °F 94% 29.77 in 3.1 mi SSE 9.2 mph - N/A Rain Light Rain Showers
2:15 PM 55.4 °F 53.6 °F 94% 29.77 in 2.8 mi South 9.2 mph - N/A Rain Rain Showers
2:25 PM 55.4 °F 53.6 °F 94% 29.77 in 3.1 mi SSE 8.1 mph - N/A Rain Light Rain Showers
3:00 PM 55.4 °F 51.8 °F 88% 29.77 in 5.0 mi SSE 8.1 mph - N/A Rain Light Rain Showers
4:00 PM 59.0 °F 44.6 °F 59% 29.80 in 6.2 mi SW 9.2 mph - N/A Rain Light Rain Showers
5:00 PM 60.8 °F 44.6 °F 55% 29.77 in 6.2 mi WSW 17.3 mph - N/A   Mostly Cloudy
6:00 PM 59.0 °F 46.4 °F 63% 29.80 in 6.2 mi WSW 19.6 mph - N/A   Mostly Cloudy
6:02 PM 59.0 °F 46.4 °F 63% 29.80 in 6.2 mi WSW 18.4 mph 29.9 mph N/A   Mostly Cloudy
7:00 PM 59.0 °F 42.8 °F 55% 29.80 in 6.2 mi WSW 20.7 mph - N/A   Mostly Cloudy
7:03 PM 59.0 °F 42.8 °F 55% 29.80 in 6.2 mi WSW 20.7 mph 32.2 mph N/A   Mostly Cloudy
8:00 PM 59.0 °F 46.4 °F 63% 29.77 in 6.2 mi WSW 19.6 mph - N/A   Mostly Cloudy